Location: Shepherdstown, WV
(39.4326°N, 77.8042°W)
Time: 04:16:06
(UTC-04:00)

Tiros 1 despin weight - Visible Passes

Search period start: 24 July 2021 00:00
Search period end: 03 August 2021 00:00
Orbit: 593 x 641 km, 48.2° (Epoch: 23 July)

Date Brightness Start Highest point End Pass type
(mag) Time Alt. Az. Time Alt. Az. Time Alt. Az.
24 Jul ? 00:32:16 10° WNW 00:32:55 13° W 00:32:55 13° W visible
24 Jul ? 21:25:01 10° NW 21:29:17 34° NNE 21:33:30 10° E visible
24 Jul ? 23:06:34 10° WNW 23:11:07 78° SW 23:11:07 78° SW visible
25 Jul ? 21:41:19 10° NW 21:45:49 48° NNE 21:49:21 15° E visible
25 Jul ? 23:23:00 10° WNW 23:26:22 36° WSW 23:26:22 36° WSW visible
26 Jul ? 21:57:33 10° WNW 22:02:12 76° NNE 22:04:38 27° ESE visible
26 Jul ? 23:39:51 10° W 23:41:40 18° WSW 23:41:40 18° WSW visible
27 Jul ? 22:13:53 10° WNW 22:18:28 62° SW 22:20:00 38° SSE visible
28 Jul ? 20:48:34 10° NW 20:53:10 57° NNE 20:57:42 10° ESE visible
28 Jul ? 22:30:26 10° WNW 22:34:34 32° SW 22:35:24 30° SSW visible
29 Jul ? 21:04:49 10° WNW 21:09:30 87° SSW 21:13:51 11° SE visible
29 Jul ? 22:47:35 10° W 22:50:32 17° SW 22:50:53 17° SW visible
30 Jul ? 21:21:13 10° WNW 21:25:42 48° SW 21:29:23 14° SSE visible
31 Jul ? 21:37:56 10° W 21:41:44 25° SW 21:45:00 12° S visible
01 Aug ? 21:55:40 10° WSW 21:57:39 13° SW 21:59:37 10° SSW visible
